Rhodes, Greece

9:15 PM EET on March 24, 2017 (GMT +0200)
Diagoras

Weather History for LGRP - October, 2012

Change the Weather History Date:

Tuesday, October 16, 2012

  Actual Average Record
Temperature  
Mean Temperature 76 °F -  
Max Temperature 83 °F 72 °F 83 °F (2012)
Min Temperature 69 °F 59 °F 62 °F (1996)
Cooling Degree Days 11    
Growing Degree Days 26 (Base 50)    
Moisture  
Dew Point 68 °F    
Average Humidity 79    
Maximum Humidity 100    
Minimum Humidity 58    
Precipitation  
Precipitation 0.00 in 0.10 in - ()
Sea Level Pressure  
Sea Level Pressure 30.06 in    
Wind  
Wind Speed 3 mph ()    
Max Wind Speed 15 mph    
Max Gust Speed -    
Visibility 6.2 miles    
Events      
Averages and records for this station are not official NWS values.
T = Trace of Precipitation, MM = Missing Value Source: Averaged Metar Reports

Daily Weather History Graph

Daily Weather History Graph

Search for Another Location

Airport or City:

Trip Planner

Search our weather history database for the weather conditions in past years. The results will help you decide how hot, cold, wet, or windy it might be!

Date:

Astronomy

Oct. 16, 2012 Rise Set
Actual Time 7:15 AM EEST 6:29 PM EEST
Civil Twilight 6:49 AM EEST 6:55 PM EEST
Nautical Twilight 6:19 AM EEST 7:25 PM EEST
Astronomical Twilight 5:50 AM EEST 7:55 PM EEST
Moon 8:11 AM EEST (10/16) 7:02 PM EEST (10/16)
Length of Visible Light 12h 06m
Length of Day
11h 14m
New Moon, 1% of the Moon is Illuminated
Oct 16
New Moon
Oct 22
First Quarter
Oct 29
Full
Nov 7
Last Quarter
Nov 14
New

Hourly Weather History & Observations

Time (EEST) Temp. Heat Index Dew Point Humidity Pressure Visibility Wind Dir Wind Speed Gust Speed Precip Events Conditions
12:20 AM 69.8 °F - 68.0 °F 94% 30.06 in 6.2 mi Calm Calm - N/A   Partly Cloudy
12:50 AM 69.8 °F - 68.0 °F 94% 30.04 in 6.2 mi Calm Calm - N/A   Partly Cloudy
1:20 AM 69.8 °F - 68.0 °F 94% 30.04 in 6.2 mi Calm Calm - N/A   Partly Cloudy
1:50 AM 69.8 °F - 68.0 °F 94% 30.06 in 6.2 mi Calm Calm - N/A   Partly Cloudy
2:20 AM 69.8 °F - 68.0 °F 94% 30.06 in 6.2 mi Calm Calm - N/A   Partly Cloudy
2:50 AM 71.6 °F - 69.8 °F 94% 30.06 in 6.2 mi SSW 3.5 mph - N/A   Partly Cloudy
3:00 AM 72 °F - 69 °F 88% 30.06 in 6 mi SSW 3.5 mph - -   Scattered Clouds
3:20 AM 71.6 °F - 69.8 °F 94% 30.06 in 6.2 mi SSW 3.5 mph - N/A   Partly Cloudy
3:50 AM 71.6 °F - 69.8 °F 94% 30.04 in 6.2 mi SSW 3.5 mph - N/A   Partly Cloudy
4:20 AM 71.6 °F - 69.8 °F 94% 30.04 in 6.2 mi Variable 2.3 mph - N/A   Partly Cloudy
4:50 AM 71.6 °F - 69.8 °F 94% 30.04 in 6.2 mi Calm Calm - N/A   Partly Cloudy
5:20 AM 71.6 °F - 69.8 °F 94% 30.04 in 6.2 mi Variable 2.3 mph - N/A   Partly Cloudy
5:50 AM 69.8 °F - 69.8 °F 100% 30.04 in 6.2 mi Calm Calm - N/A   Partly Cloudy
6:20 AM 69.8 °F - 69.8 °F 100% 30.04 in 6.2 mi Calm Calm - N/A   Partly Cloudy
6:50 AM 69.8 °F - 69.8 °F 100% 30.04 in 6.2 mi Calm Calm - N/A   Partly Cloudy
7:20 AM 69.8 °F - 69.8 °F 100% 30.04 in 6.2 mi Calm Calm - N/A   Partly Cloudy
7:50 AM 69.8 °F - 68.0 °F 94% 30.06 in 6.2 mi Calm Calm - N/A   Partly Cloudy
8:20 AM 69.8 °F - 68.0 °F 94% 30.06 in - Variable 1.2 mph - N/A   Clear
8:50 AM 71.6 °F - 66.2 °F 83% 30.06 in - Calm Calm - N/A   Clear
9:00 AM 72 °F - 65 °F 74% 30.07 in 6 mi Calm Calm - -   Clear
9:20 AM 75.2 °F - 66.2 °F 73% 30.06 in - Calm Calm - N/A   Clear
9:50 AM 77.0 °F - 71.6 °F 83% 30.06 in - Calm Calm - N/A   Clear
10:20 AM 77.0 °F - 71.6 °F 83% 30.09 in - North 5.8 mph - N/A   Clear
10:50 AM 77.0 °F - 71.6 °F 83% 30.09 in - Variable 3.5 mph - N/A   Clear
11:20 AM 77.0 °F - 71.6 °F 83% 30.09 in - Variable 3.5 mph - N/A   Clear
11:50 AM 77.0 °F - 71.6 °F 83% 30.09 in 6.2 mi NW 4.6 mph - N/A   Partly Cloudy
12:20 PM 77.0 °F - 71.6 °F 83% 30.09 in 6.2 mi WNW 4.6 mph - N/A   Partly Cloudy
12:50 PM 80.6 °F 83.9 °F 69.8 °F 70% 30.06 in 6.2 mi West 5.8 mph - N/A   Partly Cloudy
1:20 PM 80.6 °F 83.9 °F 69.8 °F 70% 30.06 in 6.2 mi West 6.9 mph - N/A   Partly Cloudy
1:50 PM 80.6 °F 83.2 °F 68.0 °F 65% 30.06 in 6.2 mi West 6.9 mph - N/A   Partly Cloudy
2:20 PM 80.6 °F 83.2 °F 68.0 °F 65% 30.06 in 6.2 mi West 6.9 mph - N/A   Partly Cloudy
2:50 PM 82.4 °F 84.6 °F 66.2 °F 58% 30.06 in 6.2 mi WSW 8.1 mph - N/A   Partly Cloudy
3:20 PM 82.4 °F 84.6 °F 66.2 °F 58% 30.06 in 6.2 mi WSW 8.1 mph - N/A   Partly Cloudy
3:50 PM 82.4 °F 84.6 °F 66.2 °F 58% 30.04 in 6.2 mi WSW 10.4 mph - N/A   Partly Cloudy
4:20 PM 82.4 °F 84.6 °F 66.2 °F 58% 30.04 in 6.2 mi WSW 11.5 mph - N/A   Partly Cloudy
4:50 PM 82.4 °F 84.6 °F 66.2 °F 58% 30.06 in 6.2 mi WSW 11.5 mph - N/A   Partly Cloudy
5:20 PM 82.4 °F 84.6 °F 66.2 °F 58% 30.06 in 6.2 mi SW 11.5 mph - N/A   Partly Cloudy
5:50 PM 80.6 °F 82.7 °F 66.2 °F 61% 30.04 in - SW 15.0 mph - N/A   Clear
6:20 PM 78.8 °F - 66.2 °F 65% 30.04 in - WSW 11.5 mph - N/A   Clear
6:50 PM 80.6 °F 83.2 °F 68.0 °F 65% 30.04 in - SW 8.1 mph - N/A   Clear
7:20 PM 78.8 °F - 68.0 °F 69% 30.04 in - SW 8.1 mph - N/A   Clear
7:50 PM 78.8 °F - 68.0 °F 69% 30.04 in - SW 6.9 mph - N/A   Clear
8:20 PM 78.8 °F - 68.0 °F 69% 30.04 in - SW 6.9 mph - N/A   Clear
8:50 PM 78.8 °F - 66.2 °F 65% 30.04 in - SW 9.2 mph - N/A   Clear
9:00 PM 78 °F - 66 °F 59% 30.05 in 6 mi SW 9.2 mph - -   Clear
9:20 PM 78.8 °F - 66.2 °F 65% 30.04 in - SW 9.2 mph - N/A   Clear
9:50 PM 75.2 °F - 68.0 °F 78% 30.06 in - SW 10.4 mph - N/A   Clear
10:20 PM 75.2 °F - 68.0 °F 78% 30.06 in 6.2 mi SW 10.4 mph - N/A   Partly Cloudy
10:50 PM 75.2 °F - 69.8 °F 83% 30.06 in 6.2 mi SW 9.2 mph - N/A   Partly Cloudy
11:20 PM 75.2 °F - 69.8 °F 83% 30.06 in 6.2 mi SW 10.4 mph - N/A   Partly Cloudy
11:50 PM 75.2 °F - 68.0 °F 78% 30.06 in 6.2 mi SW 11.5 mph - N/A   Partly Cloudy